Hourly Data Report for November 21, 2020

MUSKOKA
ONTARIO
Current Station Operator: NAVCAN

44°58'29.000" N
79°18'12.000" W
281.90 m
6115529
71532
YQA

Download Data

Hourly Data (November 2020)
Hourly Data Report for November 21, 2020
TIME
LST
Temp Definition
°C
Dew Point Definition
°C
Rel Hum Definition
%
Precip. Amount Definition
mm

Wind Dir Definition
10's deg

Wind Spd Definition
km/h
Visibility Definition
km
Stn Press Definition
kPa
Hmdx Definition


Wind Chill Definition


Weather Definition


00:00 4.3 -2.1 63 0.0 29 24 16.1 99.08     LegendNANA
01:00 3.5 -2.4 65 0.0 30 24 16.1 99.12     LegendNANA
02:00 3.0 -1.4 73 0.0 29 18 16.1 99.19     LegendNANA
03:00 2.4 -1.6 75 0.0 31 15 16.1 99.28     LegendNANA
04:00 2.1 -3.2 68 0.0 33 18 16.1 99.32     LegendNANA
05:00 1.4 -4.6 64 0.0 34 17 16.1 99.38     LegendNANA
06:00 0.9 -4.9 66 0.0 33 13 16.1 99.46     LegendNANA
07:00 0.7 -4.7 67 0.0 33 11 16.1 99.52     LegendNANA
08:00 0.7 -4.6 68 0.0 33 11 16.1 99.57     LegendNANA
09:00 0.9 -4.3 69 0.0 31 11 16.1 99.65     LegendNANA
10:00 0.8 -3.8 71 0.0 34 9 16.1 99.68     LegendNANA
11:00 1.1 -3.4 72 0.0 30 8 16.1 99.70     LegendNANA
12:00 1.1 -3.5 71 0.0 32 9 16.1 99.68     LegendNANA
13:00 0.8 -4.1 70 0.0 1 9 16.1 99.68     LegendNANA
14:00 0.8 -3.3 74 0.0 LegendMM 8 16.1 99.70     LegendNANA
15:00 0.7 -4.5 68 0.0 32 11 16.1 99.73     LegendNANA
16:00 0.4 -4.3 71 0.0 31 11 16.1 99.77     LegendNANA
17:00 -0.1 -4.9 70 0.0 LegendMM 4 16.1 99.78   -1 LegendNANA
18:00 -0.4 -4.4 74 0.0 30 5 16.1 99.83   -2 LegendNANA
19:00 -0.1 -5.5 67 0.0 34 9 16.1 99.88   -3 LegendNANA
20:00 -0.3 -5.9 66 0.0 34 5 16.1 99.86   -2 LegendNANA
21:00 -0.4 -6.6 63 0.0 1 5 16.1 99.85   -2 LegendNANA
22:00 -0.6 -6.6 64 0.0 3 5 16.1 99.85   -2 LegendNANA
23:00 -0.9 -6.5 66 0.0 LegendMM 4 16.1 99.83   -2 LegendNANA

Notes on Data Quality.

Legend

  • E = Estimated
  • M = Missing
  • NA = Not Available*
  • [empty] = Indicates an unobserved value
Date modified: